This is the latest recevied weather packets stored in our database for station/object SR7U-1. If no packets are shown the sender has not sent any weather packets the latest 10 day(s).
| Time | Temp. | Humidity | Pressure | Rain* | Wind** | Luminosity | Snow |
|---|---|---|---|---|---|---|---|
| 1777904313 | 26.11° C | 24% | 1012.5 hPa | - | - | - | - |
| 1777903555 | 26.11° C | 23% | 1012.7 hPa | - | - | - | - |
| 1777902796 | 25° C | 26% | 1012.6 hPa | - | - | - | - |
| 1777902001 | 25° C | 26% | 1012.8 hPa | - | - | - | - |
| 1777901117 | 25° C | 26% | 1013 hPa | - | - | - | - |
| 1777900293 | 25.56° C | 25% | 1013.1 hPa | - | - | - | - |
| 1777899525 | 25.56° C | 25% | 1013.1 hPa | - | - | - | - |
| 1777898720 | 24.44° C | 26% | 1013.2 hPa | - | - | - | - |
| 1777897900 | 25.56° C | 25% | 1013.3 hPa | - | - | - | - |
| 1777897015 | 25.56° C | 25% | 1013.3 hPa | - | - | - | - |
| 1777896260 | 25.56° C | 26% | 1013.5 hPa | - | - | - | - |
| 1777895522 | 24.44° C | 26% | 1013.7 hPa | - | - | - | - |
| 1777894635 | 24.44° C | 26% | 1013.6 hPa | - | - | - | - |
| 1777893755 | 24.44° C | 26% | 1013.8 hPa | - | - | - | - |
| 1777893015 | 23.89° C | 26% | 1013.9 hPa | - | - | - | - |
| 1777892195 | 23.89° C | 25% | 1014.1 hPa | - | - | - | - |
| 1777891455 | 23.33° C | 27% | 1014.2 hPa | - | - | - | - |
| 1777890575 | 22.78° C | 27% | 1014.5 hPa | - | - | - | - |
| 1777889794 | 23.33° C | 27% | 1014.7 hPa | - | - | - | - |
| 1777889015 | 23.33° C | 27% | 1014.9 hPa | - | - | - | - |
| 1777888135 | 22.78° C | 27% | 1015.1 hPa | - | - | - | - |
| 1777887270 | 22.22° C | 28% | 1015.3 hPa | - | - | - | - |
| 1777886493 | 22.22° C | 28% | 1015.3 hPa | - | - | - | - |
| 1777885752 | 22.22° C | 29% | 1015.4 hPa | - | - | - | - |
| 1777884978 | 22.22° C | 28% | 1015.5 hPa | - | - | - | - |
* Rain since midnight (hover to see other rain measurements)
** Current wind speed in m/s (hover to see current wind gust speed)